Miscellaneous Local Product
Issued by NWS North Platte, NE

Home | Current Version | Previous Version | Text Only | Print | Product List | Glossary On
Versions: 1 2 3 4 5 6 7 8 9 10 11 12 13 14 15 16 17 18 19 20 21 22 23 24 25 26 27 28 29 30 31 32 33 34 35 36 37 38 39 40 41 42 43 44 45 46 47 48 49 50
000
AXUS43 KLBF 240310
MISLBF


WESTERN AND NORTH CENTRAL NEBRASKA HOURLY WEATHER ROUNDUP
NATIONAL WEATHER SERVICE NORTH PLATTE NE
1000 PM CDT MON OCT 23 2017

NOTE: "FAIR" INDICATES FEW OR NO CLOUDS BELOW 12,000 FEET WITH NO
SIGNIFICANT WEATHER AND/OR OBSTRUCTIONS TO VISIBILITY.

NOTE: STATIONS NOT REPORTING VARIABLES SUCH AS SKY/WEATHER OR
PRESSURE ARE PROVIDED BY RAWS AND APRS NETWORKS AND ARE NOT UNDER
NATIONAL WEATHER SERVICE QUALITY CONTROL.

...OBSERVATIONS IN AND NEAR THE EASTERN PANHANDLE OF NEBRASKA...

CITY           SKY/WX    TMP DP  RH WIND       PRES   REMARKS
PINE RIDGE     CLEAR     41  20  43 NW7       30.41R
GORDON         FAIR      41  21  46 NW8       30.39S
CHADRON        CLEAR     37  18  46 NW7       30.45R WCI  32
ALLIANCE       CLEAR     32  18  56 W12       30.43R HAZE    WCI  23
SIDNEY         CLEAR     35  18  49 NW9       30.46R WCI  28
CRESCENT LAKE    N/A     42  18  38 NW9G17      N/A
$$

...OBSERVATIONS IN NORTHERN NEBRASKA AND FAR SOUTHERN SOUTH DAKOTA...

CITY           SKY/WX    TMP DP  RH WIND       PRES   REMARKS
WINNER         MOCLDY    50  28  42 NW16      30.25R
VALENTINE      CLOUDY    51  21  30 NW15      30.30R
THEDFORD       CLEAR     47  23  39 NW13      30.33R
AINSWORTH      CLOUDY    51  25  35 NW16G28   30.27R
O`NEILL        CLOUDY    49  31  49 NW16G23   30.19S
ORD            PTCLDY    51  28  41 NW21G28   30.21S
BROKEN BOW     CLEAR     48  25  40 NW14      30.26S
VALENTINE NWR    N/A     46  22  39 NW10        N/A
HALSEY           N/A     48  20  33 NW9G16      N/A
BUTTE            N/A     51  30  44 N20G29      N/A
CHAMBERS         N/A     49  29  45 N3          N/A
EWING            N/A     48  34  59 NW12        N/A
$$

...OBSERVATIONS IN SOUTHWEST NEBRASKA AND FAR NORTHEAST COLORADO...

CITY           SKY/WX    TMP DP  RH WIND       PRES   REMARKS
HOLYOKE        FAIR      46  19  34 NW14      30.44R
IMPERIAL       CLEAR     47  18  31 NW14      30.40R
OGALLALA       CLEAR     48  20  33 NW10      30.40R
NORTH PLATTE   CLEAR     37  25  61 NW9       30.35R WCI  30
MCCOOK         CLEAR     47  22  37 NW15      30.35R
LEXINGTON      CLEAR     47  23  38 NW10      30.30S
STAPLETON        N/A     44  22  41 CALM        N/A
GOTHENBURG       N/A     50  19  29 NW9         N/A
CALLAWAY         N/A     49  23  36 NW12        N/A
$$

...OBSERVATIONS IN CENTRAL LINCOLN COUNTY AREA...

CITY           SKY/WX    TMP DP  RH WIND       PRES   REMARKS
N.P. AIRPORT   CLEAR     37  25  61 NW9       30.35R WCI  30
N.P. DOWNTOWN    N/A     44  24  44 CALM        N/A
N.P. SOUTHEAST   N/A     46  22  39 NW3         N/A
N.P. HILLCREST   N/A     44  21  39 NW12        N/A
$$

...SOME OBSERVATIONS FROM AROUND THE REGION...

CITY           SKY/WX    TMP DP  RH WIND       PRES   REMARKS
DENVER         PTCLDY    38  22  52 SE9       30.51R WCI  31
LIMON          CLEAR     28  19  69 N3        30.51R
ASPEN          CLOUDY    49  23  36 NW12      30.57R
LARAMIE        CLOUDY    32  14  47 NW15      30.56R WCI  22
CASPER         CLOUDY    31  15  52 N6        30.58R WCI  25
CHEYENNE       CLEAR     38  13  35 NW9       30.53R WCI  31
SCOTTSBLUFF    PTCLDY    46  17  31 NW16      30.47R
GRAND ISLAND   CLEAR     48  32  53 NW15G23   30.22S
OMAHA          MOCLDY    52  33  48 NW17      30.06S
SIOUX FALLS    MOCLDY    49  36  61 NW13G24   30.04S
PIERRE         PTCLDY    48  28  46 NW14      30.25R
RAPID CITY     CLEAR     48  20  32 NW22G30   30.41R
BISMARCK       CLEAR     46  32  58 NW16G24   30.29R
KANSAS CITY    CLEAR     53  31  42 NW13G23   30.07R
HILL CITY      CLEAR     50  20  30 NW12      30.34R
WICHITA        CLEAR     56  28  34 N13       30.24R
DODGE CITY     CLEAR     49  19  30 N9        30.35R
OKLAHOMA CITY  PTCLDY    54  34  46 N9        30.24R
DALLAS         PTCLDY    67  47  48 N9        30.16R
AMARILLO       CLOUDY    47  34  60 N12       30.42R
$$




USA.gov is the U.S. government's official web portal to all federal, state and local government web resources and services.